Weather reports worldwide

Advertisment
Alt Ruppin, Germany (10271): temperature & dewpoint: 16.09.2019 23:00:00 - 22.09.2019 23:00:00 (CEST)Alt Ruppin, Germany (10271): temperature 5cm & temperature -5cm: 16.09.2019 23:00:00 - 22.09.2019 23:00:00 (CEST)Alt Ruppin, Germany (10271): temperature -20cm & temperature -100cm: 16.09.2019 23:00:00 - 22.09.2019 23:00:00 (CEST)Alt Ruppin, Germany (10271): wind speed & gusts: 16.09.2019 23:00:00 - 22.09.2019 23:00:00 (CEST)Alt Ruppin, Germany (10271): wind direction: 16.09.2019 23:00:00 - 22.09.2019 23:00:00 (CEST)Alt Ruppin, Germany (10271): reduced air pressure: 16.09.2019 23:00:00 - 22.09.2019 23:00:00 (CEST)Alt Ruppin, Germany (10271): visibility: 16.09.2019 23:00:00 - 22.09.2019 23:00:00 (CEST)Alt Ruppin, Germany (10271): precipitation: 16.09.2019 23:00:00 - 22.09.2019 23:00:00 (CEST)
Date & Time tt [°C] td [°C] tt 5cm [°C] tt -5cm [°C] tt -20cm [°C] tt -100cm [°C] ff [km/h] ff [kn] fx [km/h] fx [kn] dd ppp [hPa] vv [km] rr [mm]
22.09.2019 23:00:00 14,3 8,4 8,5 15,0 17,5 16,6 5 3 9 5 ENE 1012,3 55 0,0
22.09.2019 22:00:00 15,4 8,5 9,2 15,8 17,9 16,6 5 3 11 6 ENE 1012,5 56 0,0
22.09.2019 21:00:00 15,5 8,7 9,6 16,9 18,3 16,6 2 1 7 4 NE 1012,3 48 0,0
22.09.2019 20:00:00 17,4 8,6 11,4 18,4 18,6 16,6 3 2 8 5 ENE 1011,9 52 0,0
22.09.2019 19:00:00 21,1 7,9 17,3 20,4 18,7 16,6 6 3 19 11 E 1011,5 52 0,0
22.09.2019 18:00:00 23,7 7,2 24,5 22,3 18,5 16,6 12 6 21 12 E 1011,6 61 0,0
22.09.2019 17:00:00 24,7 7,9 27,3 23,7 18,2 16,6 9 5 22 12 ESE 1011,8 47 0,0
22.09.2019 16:00:00 24,7 7,2 28,6 24,6 17,6 16,6 10 5 21 11 SE 1012,3 48 0,0
22.09.2019 15:00:00 23,7 6,6 28,3 24,6 16,9 16,6 14 8 26 14 E 1012,8 62 0,0
22.09.2019 14:00:00 22,9 5,5 28,3 23,8 16,1 16,6 12 6 24 13 ESE 1013,5 37 0,0
22.09.2019 13:00:00 21,5 6,2 25,5 22,3 15,3 16,6 11 6 22 12 SE 1014,4 47 0,0
22.09.2019 12:00:00 20,0 6,6 24,9 20,2 14,6 16,6 10 5 22 12 ESE 1014,9 59 0,0
22.09.2019 11:00:00 18,0 6,3 21,7 17,3 14,1 16,6 11 6 25 14 SE 1015,7 75 0,0
22.09.2019 10:00:00 15,6 7,6 19,5 14,2 13,8 16,6 6 4 13 7 ESE 1016,2 45 0,0
22.09.2019 09:00:00 11,8 7,3 14,3 11,4 13,8 16,6 8 4 12 6 E 1016,4 47 0,0
22.09.2019 08:00:00 8,2 6,4 7,9 9,7 14,0 16,5 6 3 10 6 E 1016,7 35 0,0
22.09.2019 07:00:00 6,4 5,5 2,5 9,6 14,3 16,5 4 2 9 5 ENE 1016,9 28 0,0
22.09.2019 06:00:00 7,1 6,1 2,7 10,0 14,6 16,5 4 2 11 6 E 1017,1 34 0,0
22.09.2019 05:00:00 6,5 5,6 2,8 10,3 14,9 16,5 5 3 8 4 E 1017,4 34 0,0
22.09.2019 04:00:00 6,8 5,8 3,2 10,8 15,2 16,5 5 3 7 4 ENE 1017,6 41 0,0
22.09.2019 03:00:00 6,7 5,6 3,6 11,3 15,6 16,5 2 1 4 2 NNE 1018,2 46 0,0
22.09.2019 02:00:00 7,3 6,2 4,7 11,8 15,9 16,5 2 1 4 2 N 1018,7 26 0,0
22.09.2019 01:00:00 8,1 6,8 4,8 12,5 16,3 16,4 2 1 4 2 NE 1019,0 42 0,0
22.09.2019 00:00:00 8,7 7,1 5,2 13,2 16,7 16,4 3 1 4 2 NNE 1019,0 46 0,0
21.09.2019 23:00:00 9,4 7,7 5,9 14,0 17,2 16,4 0 0 4 2 N 1019,5 35 0,0
21.09.2019 22:00:00 10,9 8,5 6,9 15,0 17,6 16,4 3 1 4 2 ENE 1019,5 42 0,0
21.09.2019 21:00:00 12,2 9,2 8,2 16,2 18,0 16,4 0 0 5 3 N 1020,0 47 0,0
21.09.2019 20:00:00 14,5 9,2 9,6 17,7 18,4 16,4 3 1 6 4 ESE 1020,0 45 0,0
21.09.2019 19:00:00 18,8 8,3 14,2 19,9 18,5 16,4 2 1 9 5 SE 1020,0 50 0,0
21.09.2019 18:00:00 20,9 7,6 22,7 21,9 18,4 16,4 4 2 10 6 WSW 1020,2 49 0,0
21.09.2019 17:00:00 21,1 7,5 24,1 23,4 18,1 16,4 5 3 12 6 WSW 1020,6 50 0,0
21.09.2019 16:00:00 21,1 7,8 25,8 24,3 17,6 16,4 6 3 17 9 WSW 1021,1 61 0,0
21.09.2019 15:00:00 20,5 7,6 26,1 24,4 17,0 16,4 7 4 18 10 WSW 1021,8 59 0,0
21.09.2019 14:00:00 19,9 7,9 25,5 23,6 16,3 16,4 10 5 19 11 SW 1022,3 51 0,0
21.09.2019 13:00:00 18,7 7,4 23,3 22,5 15,5 16,4 10 5 23 12 WSW 1022,8 57 0,0
21.09.2019 12:00:00 17,5 8,7 22,5 20,5 14,9 16,4 13 7 21 11 WSW 1023,3 48 0,0
21.09.2019 11:00:00 16,2 8,6 21,5 18,1 14,4 16,4 8 4 15 8 WSW 1023,7 60 0,0
21.09.2019 10:00:00 14,4 7,6 19,3 15,4 14,2 16,4 7 4 13 7 WSW 1024,0 61 0,0
21.09.2019 09:00:00 12,0 6,7 15,0 13,4 14,2 16,4 5 3 11 6 WSW 1024,1 49 0,0
21.09.2019 08:00:00 10,7 6,4 11,0 12,7 14,2 16,5 6 3 13 7 SW 1024,2 53 0,0
21.09.2019 07:00:00 10,5 6,5 10,4 12,7 14,3 16,5 4 2 11 6 SW 1024,1 55 0,0
21.09.2019 06:00:00 11,2 6,9 10,7 12,9 14,4 16,5 7 4 15 8 WSW 1024,1 54 0,0
21.09.2019 05:00:00 11,9 7,1 11,7 13,2 14,5 16,5 6 3 15 8 WSW 1024,5 61 0,0
21.09.2019 04:00:00 12,8 7,7 12,4 13,4 14,6 16,5 8 4 13 7 WSW 1024,6 53 0,0
21.09.2019 03:00:00 13,0 7,9 12,5 13,5 14,6 16,5 4 2 13 7 W 1024,8 66 0,0
21.09.2019 02:00:00 13,2 8,1 12,6 13,7 14,7 16,5 5 3 10 5 WSW 1025,0 67 0,0
21.09.2019 01:00:00 13,5 8,0 12,9 13,8 14,8 16,5 6 4 11 6 WSW 1025,2 68 0,0
21.09.2019 00:00:00 13,8 8,2 13,0 13,9 14,9 16,5 5 3 13 7 WSW 1025,7 57 0,0
20.09.2019 23:00:00 14,1 8,2 13,3 14,1 15,0 16,5 7 4 14 8 WSW 1026,0 65 0,0
20.09.2019 22:00:00 14,5 8,4 13,9 14,5 15,1 16,5 8 4 14 8 WSW 1026,2 62 0,0
20.09.2019 21:00:00 14,5 8,6 13,9 14,8 15,2 16,6 6 3 11 6 WSW 1026,3 56 0,0
20.09.2019 20:00:00 14,6 8,9 14,1 15,2 15,2 16,6 5 3 16 9 WSW 1026,3 57 0,0
20.09.2019 19:00:00 15,1 8,7 14,7 15,9 15,2 16,6 7 4 16 9 W 1026,1 58 0,0
20.09.2019 18:00:00 15,4 8,2 15,8 16,7 15,2 16,6 8 4 20 11 W 1026,4 51 0,0
20.09.2019 17:00:00 15,4 7,9 16,1 17,6 14,9 16,6 11 6 26 14 WNW 1026,6 56 0,0
20.09.2019 16:00:00 15,9 8,0 19,2 19,0 14,5 16,7 11 6 20 11 W 1027,0 61 0,0
20.09.2019 15:00:00 15,7 8,0 19,9 18,9 13,9 16,7 11 6 22 12 W 1027,6 60 0,0
20.09.2019 14:00:00 15,5 7,7 19,4 17,7 13,2 16,7 10 5 20 11 W 1028,1 59 0,0
20.09.2019 13:00:00 14,3 6,2 18,9 16,3 12,7 16,7 11 6 23 12 W 1028,6 57 0,0
20.09.2019 12:00:00 12,0 7,0 13,8 13,9 12,3 16,7 10 5 18 10 W 1028,8 56 0,0
20.09.2019 11:00:00 11,0 6,9 13,3 12,5 12,0 16,8 8 4 16 9 W 1028,8 48 0,0
20.09.2019 10:00:00 9,4 6,6 10,7 11,2 11,7 16,8 9 5 15 8 W 1028,6 34 0,0
20.09.2019 09:00:00 7,5 5,8 7,7 9,3 11,7 16,8 4 2 12 7 WNW 1028,5 36 0,0
20.09.2019 08:00:00 5,5 4,5 5,8 7,2 11,8 16,8 4 2 9 5 WNW 1028,2 31 0,0
20.09.2019 07:00:00 4,5 3,8 1,4 6,9 12,0 16,8 3 2 7 4 WNW 1028,1 31 0,0
20.09.2019 06:00:00 4,5 3,5 1,4 7,2 12,3 16,8 4 2 8 4 NW 1028,4 41 0,0
20.09.2019 05:00:00 4,9 3,9 1,7 7,5 12,5 16,8 5 3 10 5 W 1028,4 40 0,0
20.09.2019 04:00:00 4,7 3,5 1,5 7,7 12,8 16,8 5 3 8 4 WNW 1028,6 45 0,0
20.09.2019 03:00:00 5,3 3,5 1,9 8,1 13,1 16,8 5 3 9 5 W 1028,5 48 0,0
20.09.2019 02:00:00 4,5 3,5 1,9 8,6 13,4 16,8 0 0 4 2 N 1028,6 48 0,0
20.09.2019 01:00:00 5,6 4,3 2,6 9,1 13,7 16,9 2 1 6 4 NNW 1028,8 50 0,0
20.09.2019 00:00:00 5,6 4,6 2,1 9,5 14,1 16,9 2 1 5 3 W 1028,9 45 0,0
19.09.2019 23:00:00 6,2 4,6 2,5 10,2 14,4 16,9 0 0 4 2 N 1028,9 49 0,0
19.09.2019 22:00:00 7,9 5,0 3,4 11,1 14,8 16,9 3 2 7 4 NW 1028,7 60 0,0
19.09.2019 21:00:00 10,0 5,4 4,6 12,2 15,1 16,9 4 2 7 4 NW 1028,3 60 0,0
19.09.2019 20:00:00 11,7 5,1 6,8 13,5 15,4 16,9 4 2 10 5 NW 1028,1 53 0,0
19.09.2019 19:00:00 13,9 4,3 12,1 15,2 15,5 17,0 6 4 22 12 NW 1027,7 67 0,0
19.09.2019 18:00:00 15,0 4,3 15,6 16,7 15,4 17,0 13 7 25 13 NW 1027,4 69 0,0
19.09.2019 17:00:00 16,1 3,9 18,6 17,8 15,2 17,0 12 7 25 14 WNW 1027,0 73 0,0
19.09.2019 16:00:00 15,4 4,8 16,7 17,3 15,0 17,0 6 3 16 8 N 1027,3 55 0,0
19.09.2019 15:00:00 15,1 4,3 16,0 18,3 14,6 17,1 8 4 18 10 NW 1027,5 69 0,0
19.09.2019 14:00:00 15,2 5,2 17,8 18,4 14,0 17,1 10 5 23 12 NNW 1027,7 69 0,0
19.09.2019 13:00:00 15,5 5,7 21,1 18,3 13,3 17,1 10 5 21 11 NW 1027,5 55 0,0
19.09.2019 12:00:00 13,8 5,8 20,1 17,0 12,6 17,1 9 5 23 13 NNW 1027,4 44 0,0
19.09.2019 11:00:00 11,4 7,2 15,9 13,5 12,2 17,2 7 4 16 9 W 1027,4 39 0,0
19.09.2019 10:00:00 9,1 7,0 11,4 10,9 12,0 17,2 10 5 21 12 NW 1027,0 30 0,0
19.09.2019 09:00:00 7,6 6,1 7,7 9,2 12,0 17,2 8 4 16 9 WNW 1026,5 27 0,0
19.09.2019 08:00:00 6,4 5,3 6,2 7,7 12,2 17,2 8 5 16 8 W 1025,7 27 0,0
19.09.2019 07:00:00 5,9 4,8 4,1 7,5 12,4 17,2 6 3 14 8 W 1025,4 30 0,0
19.09.2019 06:00:00 6,5 5,1 4,9 7,8 12,6 17,3 8 4 15 8 W 1024,8 32 0,0
19.09.2019 05:00:00 6,4 4,9 4,2 8,1 12,9 17,3 6 3 10 6 W 1024,6 34 0,0
19.09.2019 04:00:00 7,0 4,9 4,8 8,6 13,1 17,3 6 3 16 9 W 1024,2 37 0,0
19.09.2019 03:00:00 7,7 5,1 5,9 9,1 13,3 17,3 7 4 16 9 W 1024,2 40 0,0
19.09.2019 02:00:00 8,4 5,3 6,0 9,6 13,6 17,3 6 4 21 11 WNW 1024,1 41 0,0
19.09.2019 01:00:00 9,7 5,4 8,1 10,3 13,8 17,4 9 5 18 10 W 1023,8 47 0,0
19.09.2019 00:00:00 10,2 5,6 9,2 10,6 14,0 17,4 9 5 18 10 W 1023,5 48 0,0
18.09.2019 23:00:00 10,0 5,4 7,7 11,0 14,2 17,4 6 3 20 11 W 1023,4 55 0,0
18.09.2019 22:00:00 10,7 4,6 9,8 11,1 14,4 17,4 9 5 18 10 WNW 1023,3 46 0,0
18.09.2019 21:00:00 10,8 4,5 9,2 11,6 14,7 17,5 9 5 28 15 WNW 1023,0 51 0,0
18.09.2019 20:00:00 11,7 4,4 10,1 12,5 14,9 17,5 8 4 21 11 WNW 1022,4 55 0,0
18.09.2019 19:00:00 12,9 4,0 12,1 14,0 15,0 17,5 9 5 45 24 NW 1021,9 61 0,0
18.09.2019 18:00:00 14,8 1,8 15,5 15,4 14,9 17,5 15 8 38 21 WNW 1021,5 64 0,0
18.09.2019 17:00:00 14,3 2,7 14,5 15,7 14,6 17,6 16 8 38 20 NW 1021,5 43 0,0
18.09.2019 16:00:00 14,9 3,1 16,0 16,3 14,3 17,6 11 6 50 27 WNW 1021,7 47 0,0
18.09.2019 15:00:00 14,1 3,5 15,2 15,2 14,0 17,6 16 9 36 19 NNW 1021,9 44 0,0
18.09.2019 14:00:00 14,3 3,2 17,6 15,1 13,8 17,7 19 10 46 25 WNW 1021,8 40 0,0
18.09.2019 13:00:00 13,7 3,9 15,1 14,3 13,4 17,7 14 8 36 20 NW 1021,6 49 0,0
18.09.2019 12:00:00 13,3 4,3 14,7 14,4 13,0 17,7 15 8 42 23 WNW 1021,5 49 0,0
18.09.2019 11:00:00 12,4 6,0 14,1 13,2 12,6 17,7 14 8 45 24 NW 1021,3 31 0,0
18.09.2019 10:00:00 11,1 6,7 13,8 11,9 12,3 17,8 13 7 26 14 W 1021,1 30 0,0
18.09.2019 09:00:00 9,0 6,2 10,7 9,5 12,3 17,8 13 7 23 12 W 1020,5 37 0,0
18.09.2019 08:00:00 7,5 6,0 7,1 7,7 12,4 17,8 13 7 24 13 W 1020,0 27 0,0
18.09.2019 07:00:00 6,7 5,4 5,3 7,4 12,6 17,8 10 6 21 12 W 1019,7 27 0,0
18.09.2019 06:00:00 6,8 5,1 5,5 7,5 12,8 17,8 11 6 21 11 W 1019,4 32 0,0
18.09.2019 05:00:00 7,1 5,0 5,3 7,8 13,0 17,8 10 6 20 11 W 1018,9 36 0,0
18.09.2019 04:00:00 7,4 5,0 5,9 8,0 13,3 17,9 12 6 24 13 W 1018,4 38 0,0
18.09.2019 03:00:00 7,8 5,0 6,3 8,3 13,5 17,9 12 6 29 15 W 1017,7 39 0,0
18.09.2019 02:00:00 8,4 4,9 6,9 8,6 13,8 17,9 15 8 29 16 W 1017,1 42 0,0
18.09.2019 01:00:00 8,8 4,9 7,0 8,8 14,0 17,9 12 6 27 15 W 1016,5 44 0,0
18.09.2019 00:00:00 9,2 4,3 7,3 9,1 14,3 17,9 10 6 29 15 WNW 1015,6 41 0,0
17.09.2019 23:00:00 9,7 4,4 8,0 9,4 14,7 17,9 16 9 36 20 W 1015,0 44 0,0
17.09.2019 22:00:00 9,8 4,8 7,9 9,8 15,0 17,9 19 11 31 17 W 1014,1 43 0,0
17.09.2019 21:00:00 9,4 4,8 7,6 10,2 15,4 17,9 13 7 29 16 W 1013,7 50 0,0
17.09.2019 20:00:00 9,7 5,4 7,7 11,0 15,8 17,9 15 8 36 19 WNW 1013,3 52 0,0
17.09.2019 19:00:00 9,2 6,6 8,2 12,0 16,1 18,0 11 6 29 16 WNW 1012,8 43 0,1
17.09.2019 18:00:00 8,9 5,1 7,7 13,3 16,4 18,0 26 14 63 34 WNW 1012,5 60 2,5
17.09.2019 17:00:00 12,0 7,2 11,7 15,0 16,4 18,0 18 10 38 21 W 1011,9 59 0,0
17.09.2019 16:00:00 10,5 7,9 11,3 15,0 16,5 18,0 19 10 56 30 NW 1012,0 52 1,1
17.09.2019 15:00:00 12,6 7,9 13,5 16,1 16,5 18,0 18 10 43 23 W 1011,5 48 0,2
17.09.2019 14:00:00 13,0 9,1 14,7 16,7 16,4 18,0 24 13 44 24 WSW 1012,0 44 0,0
17.09.2019 13:00:00 13,0 9,0 13,9 16,7 16,2 18,0 16 9 33 18 W 1012,9 52 0,1
17.09.2019 12:00:00 11,9 9,0 12,0 16,1 16,1 18,0 12 6 38 21 WNW 1013,7 29 0,3
17.09.2019 11:00:00 14,2 7,4 16,0 17,3 15,8 18,0 15 8 36 20 W 1013,4 43 0,0
17.09.2019 10:00:00 13,2 7,6 15,7 15,9 15,7 18,0 16 9 29 15 WSW 1013,9 41 0,0
17.09.2019 09:00:00 11,7 7,9 13,5 13,8 15,7 18,0 13 7 24 13 WSW 1014,2 30 0,0
17.09.2019 08:00:00 11,0 8,1 10,9 13,2 15,8 18,0 14 8 26 14 WSW 1014,4 30 0,0
17.09.2019 07:00:00 11,2 8,2 10,7 13,2 16,0 18,0 11 6 21 11 WSW 1014,4 32 0,0
17.09.2019 06:00:00 11,4 8,9 10,6 13,5 16,1 18,0 10 5 21 11 WSW 1015,0 28 0,1
17.09.2019 05:00:00 12,0 8,6 11,5 13,7 16,2 18,0 9 5 24 13 WSW 1015,6 31 0,0
17.09.2019 04:00:00 12,0 7,9 11,4 13,7 16,4 18,0 8 5 16 9 W 1016,0 37 0,0
17.09.2019 03:00:00 12,3 7,7 11,6 14,0 16,5 18,0 11 6 19 10 W 1016,1 35 0,0
17.09.2019 02:00:00 12,3 7,6 11,7 14,1 16,7 18,0 8 4 16 8 W 1016,4 36 0,0
17.09.2019 01:00:00 12,3 7,5 11,5 14,2 16,8 18,0 7 4 14 8 W 1016,8 36 0,0
17.09.2019 00:00:00 12,3 7,4 11,7 14,3 17,0 18,0 7 4 15 8 W 1017,0 37 0,0
16.09.2019 23:00:00 12,1 7,3 11,3 14,3 17,3 18,1 7 4 14 7 W 1017,2 35 0,0

tt = temperature
td = dewpoint
tt 5cm = temperature 5cm
tt -5cm = temperature -5cm
tt -20cm = temperature -20cm
tt -100cm = temperature -100cm
ff = wind speed
fx = gusts
dd = wind direction
ppp = reduced air pressure
vv = visibility
rr = precipitation

Next stations